Madison, WI

5:51 AM CDT on June 26, 2017 (GMT -0500)
Dane County Regional-Truax

Weather History for KMSN - April, 2012

Change the Weather History Date:

Friday, April 6, 2012

  Actual Average Record
Temperature  
Mean Temperature 42 °F 43 °F  
Max Temperature 58 °F 53 °F 85 °F (1991)
Min Temperature 26 °F 32 °F 4 °F (1982)
Degree Days  
Heating Degree Days 23 22  
Month to date heating degree days 100 140  
Since 1 July heating degree days 5221 6589  
Cooling Degree Days 0 0  
Month to date cooling degree days 0 0  
Year to date cooling degree days 26 0  
Moisture  
Dew Point 27 °F    
Average Humidity 54    
Maximum Humidity 78    
Minimum Humidity 30    
Precipitation  
Precipitation 0.00 in 0.10 in 1.09 in (1929)
Month to date precipitation 0.00 0.62  
Year to date precipitation 5.04 5.50  
Snow  
Snow 0.00 in 0.10 in 4.50 in (1911)
Month to date snowfall 0.0 0.8  
Since 1 July snowfall 31.4 48.9  
Snow Depth 0.00 in    
Sea Level Pressure  
Sea Level Pressure 30.28 in    
Wind  
Wind Speed 7 mph (ESE)    
Max Wind Speed 16 mph    
Max Gust Speed 24 mph    
Visibility 10 miles    
Events      
T = Trace of Precipitation, MM = Missing Value Source: NWS Daily Summary

Daily Weather History Graph

Daily Weather History Graph

Search for Another Location

Airport or City:

Trip Planner

Search our weather history database for the weather conditions in past years. The results will help you decide how hot, cold, wet, or windy it might be!

Date:

Astronomy

Apr. 06, 2012 Rise Set
Actual Time 6:29 AM CDT 7:30 PM CDT
Civil Twilight 6:00 AM CDT 7:59 PM CDT
Nautical Twilight 5:26 AM CDT 8:34 PM CDT
Astronomical Twilight 4:49 AM CDT 9:10 PM CDT
Moon 7:51 PM CDT (4/6) 6:01 AM CDT (4/6)
Length of Visible Light 13h 58m
Length of Day
13h 00m
Full, 100% of the Moon is Illuminated
Apr 6
Full
Apr 6
Full
Apr 13
Last Quarter
Apr 21
New
Apr 29
First Quarter

Hourly Weather History & Observations

Time (CDT) Temp. Windchill Dew Point Humidity Pressure Visibility Wind Dir Wind Speed Gust Speed Precip Events Conditions
12:53 AM 34.0 °F 28.8 °F 23.0 °F 64% 30.24 in 10.0 mi NE 5.8 mph - N/A   Clear
1:53 AM 33.1 °F 30.0 °F 23.0 °F 66% 30.25 in 10.0 mi North 3.5 mph - N/A   Clear
2:53 AM 30.2 °F 26.7 °F 23.0 °F 75% 30.24 in 10.0 mi North 3.5 mph - N/A   Clear
3:53 AM 28.9 °F 23.9 °F 23.0 °F 78% 30.26 in 10.0 mi North 4.6 mph - N/A   Clear
4:53 AM 30.0 °F 25.2 °F 23.0 °F 75% 30.28 in 10.0 mi North 4.6 mph - N/A   Clear
5:53 AM 28.9 °F 25.2 °F 23.0 °F 78% 30.29 in 10.0 mi North 3.5 mph - N/A   Clear
6:53 AM 30.0 °F 26.5 °F 25.0 °F 82% 30.32 in 10.0 mi North 3.5 mph - N/A   Clear
7:53 AM 34.0 °F - 27.0 °F 75% 30.34 in 10.0 mi Calm Calm - N/A   Clear
8:53 AM 39.9 °F 34.5 °F 32.0 °F 73% 30.35 in 10.0 mi SE 8.1 mph - N/A   Clear
9:53 AM 46.0 °F 41.0 °F 30.0 °F 54% 30.35 in 10.0 mi ESE 10.4 mph - N/A   Clear
10:53 AM 48.9 °F - 30.0 °F 48% 30.34 in 10.0 mi East 8.1 mph - N/A   Clear
11:53 AM 51.1 °F - 28.9 °F 43% 30.34 in 10.0 mi SE 8.1 mph - N/A   Clear
12:53 PM 54.0 °F - 28.0 °F 37% 30.32 in 10.0 mi ESE 10.4 mph - N/A   Clear
1:53 PM 55.0 °F - 28.0 °F 35% 30.30 in 10.0 mi ESE 3.5 mph - N/A   Clear
2:53 PM 55.9 °F - 28.0 °F 34% 30.28 in 10.0 mi ESE 3.5 mph - N/A   Clear
3:53 PM 57.0 °F - 28.0 °F 33% 30.25 in 10.0 mi ESE 11.5 mph - N/A   Clear
4:53 PM 57.0 °F - 27.0 °F 32% 30.24 in 10.0 mi ESE 6.9 mph - N/A   Clear
5:53 PM 57.0 °F - 28.0 °F 33% 30.23 in 10.0 mi SSE 6.9 mph - N/A   Clear
6:53 PM 54.0 °F - 27.0 °F 35% 30.22 in 10.0 mi SE 10.4 mph - N/A   Clear
7:53 PM 51.1 °F - 27.0 °F 39% 30.22 in 10.0 mi SE 9.2 mph - N/A   Clear
8:53 PM 46.9 °F - 28.9 °F 50% 30.24 in 10.0 mi SE 8.1 mph - N/A   Clear
9:53 PM 46.0 °F 41.4 °F 26.1 °F 46% 30.23 in 10.0 mi SE 9.2 mph - N/A   Clear
10:53 PM 44.1 °F 40.8 °F 25.0 °F 47% 30.24 in 10.0 mi SSE 5.8 mph - N/A   Clear
11:53 PM 41.0 °F 35.8 °F 24.1 °F 51% 30.24 in 10.0 mi SE 8.1 mph - N/A   Clear